TimeCDT,TemperatureF,Dew PointF,Humidity,Sea Level PressureIn,VisibilityMPH,Wind Direction,Wind SpeedMPH,Gust SpeedMPH,PrecipitationIn,Events,Conditions,WindDirDegrees,DateUTC
12:52 AM,59.0,51.1,75,29.91,10.0,SSE,6.9,-,N/A,,Clear,150,2012-10-03 05:52:00
1:52 AM,57.9,51.1,78,29.91,10.0,SSW,8.1,-,N/A,,Clear,200,2012-10-03 06:52:00
2:52 AM,55.9,50.0,80,29.92,10.0,SSW,6.9,-,N/A,,Clear,200,2012-10-03 07:52:00
3:52 AM,55.0,50.0,83,29.91,10.0,SSW,5.8,-,N/A,,Clear,200,2012-10-03 08:52:00
4:52 AM,54.0,50.0,86,29.92,10.0,SSW,6.9,-,N/A,,Clear,210,2012-10-03 09:52:00
5:52 AM,55.0,50.0,83,29.92,10.0,SSW,5.8,-,N/A,,Clear,200,2012-10-03 10:52:00
6:52 AM,55.9,50.0,80,29.93,10.0,Calm,Calm,-,N/A,,Clear,0,2012-10-03 11:52:00
7:52 AM,55.0,50.0,83,29.94,10.0,Calm,Calm,-,N/A,,Clear,0,2012-10-03 12:52:00
8:52 AM,60.1,54.0,80,29.94,10.0,SSE,4.6,-,N/A,,Clear,150,2012-10-03 13:52:00
9:52 AM,66.0,55.0,68,29.95,10.0,South,8.1,-,N/A,,Clear,190,2012-10-03 14:52:00
10:52 AM,72.0,54.0,53,29.95,10.0,South,12.7,-,N/A,,Clear,170,2012-10-03 15:52:00
11:52 AM,75.9,53.1,45,29.94,10.0,South,15.0,-,N/A,,Clear,180,2012-10-03 16:52:00
12:52 PM,79.0,51.1,38,29.94,10.0,South,15.0,-,N/A,,Clear,180,2012-10-03 17:52:00
1:52 PM,80.1,53.1,39,29.90,10.0,South,15.0,20.7,N/A,,Clear,180,2012-10-03 18:52:00
2:52 PM,81.0,52.0,36,29.88,10.0,South,16.1,-,N/A,,Clear,170,2012-10-03 19:52:00
3:52 PM,81.0,53.1,38,29.86,10.0,South,16.1,21.9,N/A,,Clear,170,2012-10-03 20:52:00
4:52 PM,81.0,54.0,39,29.86,10.0,SSE,19.6,24.2,N/A,,Clear,160,2012-10-03 21:52:00
5:52 PM,80.1,54.0,40,29.86,10.0,SSE,15.0,-,N/A,,Clear,150,2012-10-03 22:52:00
6:52 PM,77.0,54.0,45,29.87,10.0,SSE,12.7,-,N/A,,Clear,150,2012-10-03 23:52:00
7:52 PM,71.1,55.0,57,29.89,10.0,SE,9.2,-,N/A,,Clear,140,2012-10-04 00:52:00
8:52 PM,70.0,55.0,59,29.91,10.0,SE,11.5,-,N/A,,Clear,140,2012-10-04 01:52:00
9:52 PM,68.0,54.0,61,29.92,10.0,SSE,11.5,-,N/A,,Clear,150,2012-10-04 02:52:00
10:52 PM,66.9,54.0,63,29.93,10.0,SE,11.5,-,N/A,,Clear,140,2012-10-04 03:52:00
11:52 PM,66.9,54.0,63,29.94,10.0,SE,9.2,-,N/A,,Clear,140,2012-10-04 04:52:00